SL-14 DEB, 45340

Orbit data source: Space-Track

SL-14 DEB, 45340 is space debris in LEO originally from a launch on Thu, 15 Aug 1991 UTC launched from the Plesetsk Missile And Space Complex (PKMTR). Debris objects in space refer to the collection of defunct objects orbiting the Earth. Examples of debris include non-operational satellites, rocket bodies, and fragments generated from explosions, collisions, or faulty payload assembly.

Loading next visibility...
Identifier
45340, 1991-056CE
Orbit
LEO
Country
Flag of CISCIS
Related business
Manufacturer
Unknown
Mission
Spacecraft
Bus & Motor
Unknown
Mass
Unknown
Launch date (UTC)
1991-08-15 (34 years ago)
Launch vehicle
Unknown
Launch site
Plesetsk Missile And Space Complex (PKMTR)
Object type
Payload
Rocket body
Debris
Shape & HBR
Unknown shape, 0.1 m
Radar Cross Section
Small (<0.1 m²)

Expand to show TLE details & history
Last TLE update: 17 hours ago

TLE from 17 hours ago
0 SL-14 DEB
1 45340U 91056CE  25286.77470922  .00009305  00000-0  16030-1 0  9996
2 45340  82.5298 292.3760 0099146 157.3072 203.2494 13.42185812271497
Epoch: 2025-10-13T18:35Z
TLE epoch observation values (Epoch: 2025-10-13T18:35:34.876Z)
Latitude
-0.00005°
Longitude
-9.09198°
Altitude
1,172.249 km
Speed
7.234 km/s
True Right ascension
19h 29m 30s
True Declination
0° 00' 00"
Sunlit
Object was in daylight at epoch
Visualization orbit readout
Latitude
Unknown
Longitude
Unknown
Altitude
Unknown
Speed
Unknown
Apparent Right ascension
Unknown
Apparent Declination
Unknown
Sunlit
N/A
Visualization observer readout
Local Sidereal Time
06:13:25
Azimuth
Unknown
Elevation
Unknown
Doppler factor
Unknown
Orbital elements
Apogee altitude
1,172.484 km
Perigee altitude
1,024.232 km
Semi-major axis
7,476.495 km
Eccentricity
0.00991
Inclination
82.5298°
RAAN
292.376°
Arg. of periapsis
157.3072°
True anomaly
202.80599°
Mean anomaly
203.2494°
Eccentric anomaly
203.02719°
Mean motion
3.35735 °/min
Orbital period
107.23 mins
BSTAR
0.01603
Loading maneuver chart data...
Computing Atmospheric mass density...
Loading historical data...
Loading historical data...
Loading historical data...
Loading historical data...
Loading historical data...
Loading historical data...
Loading historical data...

Documentation

Showing up to 5 results
|